GW0518 Weather Reports


Display with metric or nautical units.
time (UTC)temp
F
wind
direction
speed
MPH
gust
MPH
rain 1hr
in
rain 24hr
in
rain mn
in
humidity
%
barometer
mb
20260505222434 64 5 5.0 11.0 0.00 0.45 0.45 76 1006.9
20260505221936 64 23 4.0 8.0 0.00 0.45 0.45 77 1006.7
20260505221212 65 355 4.0 9.0 0.00 0.45 0.45 76 1006.7
20260505220711 65 9 5.0 10.0 0.00 0.45 0.45 76 1006.6
20260505220211 65 355 6.0 11.0 0.00 0.45 0.45 75 1006.4
20260505215712 66 334 5.0 11.0 0.00 0.45 0.45 76 1006.3
20260505215212 66 32 2.0 11.0 0.01 0.45 0.45 81 1006.3
20260505214713 67 267 2.0 9.0 0.01 0.45 0.45 83 1006.1
20260505214212 67 255 2.0 9.0 0.03 0.45 0.45 84 1006.2
20260505213712 67 228 2.0 5.0 0.03 0.45 0.45 87 1006.0
20260505213433 66 227 2.0 5.0 0.03 0.45 0.45 87 1006.0
20260505212935 66 228 2.0 5.0 0.03 0.45 0.45 87 1006.0
20260505212211 66 223 2.0 4.0 0.03 0.45 0.45 88 1006.0
20260505211711 66 222 2.0 4.0 0.03 0.45 0.45 87 1005.9
20260505211213 66 221 2.0 4.0 0.06 0.45 0.45 87 1005.9
20260505210933 65 221 2.0 4.0 0.06 0.45 0.45 86 1005.9
20260505210434 65 234 2.0 5.0 0.06 0.45 0.45 85 1005.9
20260505205712 65 234 2.0 5.0 0.06 0.45 0.45 84 1005.9
20260505205211 66 193 1.0 4.0 0.05 0.44 0.44 82 1006.0
20260505204712 66 193 1.0 4.0 0.05 0.44 0.43 81 1006.1
20260505204211 67 193 2.0 7.0 0.03 0.42 0.42 79 1005.9
20260505203711 67 190 3.0 9.0 0.03 0.42 0.42 78 1005.7
20260505203431 68 182 3.0 9.0 0.03 0.42 0.42 78 1005.8
20260505202712 68 225 2.0 6.0 0.03 0.42 0.42 78 1005.7
20260505202211 69 262 2.0 6.0 0.03 0.42 0.42 76 1005.5
20260505201930 70 249 2.0 4.0 0.03 0.42 0.42 73 1005.5
20260505201211 71 296 1.0 4.0 0.00 0.39 0.39 71 1005.4
20260505200712 71 298 2.0 9.0 0.00 0.39 0.39 68 1005.4
20260505200212 71 298 3.0 9.0 0.00 0.39 0.39 68 1005.4
20260505195711 71 294 4.0 9.0 0.00 0.39 0.39 68 1005.4
20260505195212 71 270 4.0 8.0 0.00 0.39 0.39 69 1005.4
20260505194714 71 232 4.0 12.0 0.00 0.39 0.39 69 1005.4
20260505194435 71 305 5.0 12.0 0.00 0.39 0.39 69 1005.5
20260505193713 70 244 4.0 12.0 0.00 0.39 0.39 72 1005.6
20260505193212 69 292 5.0 12.0 0.00 0.39 0.39 73 1005.5
20260505192712 69 219 4.0 12.0 0.00 0.39 0.39 73 1005.5
20260505192213 69 246 3.0 8.0 0.00 0.39 0.39 77 1005.6
20260505191711 68 229 4.0 13.0 0.00 0.39 0.39 78 1005.6
20260505191212 67 260 5.0 14.0 0.01 0.39 0.39 78 1005.7
20260505190711 66 236 5.0 14.0 0.02 0.39 0.39 80 1005.6
20260505190211 66 244 5.0 12.0 0.06 0.39 0.39 82 1005.7
20260505185929 65 242 5.0 13.0 0.07 0.39 0.39 83 1005.6
20260505185212 65 219 4.0 13.0 0.09 0.39 0.39 86 1005.5
20260505184711 64 209 3.0 9.0 0.17 0.39 0.39 88 1005.7
20260505184211 63 259 3.0 8.0 0.17 0.39 0.39 88 1005.8
20260505183711 63 231 3.0 7.0 0.18 0.39 0.39 89 1005.7
20260505183213 62 224 3.0 11.0 0.20 0.39 0.39 90 1005.7
20260505182712 61 237 4.0 11.0 0.20 0.39 0.39 89 1005.8
20260505182211 61 217 4.0 12.0 0.20 0.39 0.39 88 1006.0
20260505181712 61 250 5.0 12.0 0.20 0.39 0.39 87 1006.4
20260505181211 61 261 6.0 17.0 0.19 0.38 0.38 85 1005.8
20260505180712 61 201 8.0 24.0 0.19 0.37 0.36 84 1005.9
20260505180211 62 278 6.0 24.0 0.25 0.33 0.33 83 1006.6
20260505175711 63 270 6.0 21.0 0.24 0.32 0.32 82 1006.5
20260505175212 64 248 5.0 21.0 0.22 0.30 0.29 81 1006.5
20260505174932 65 289 2.0 7.0 0.14 0.22 0.22 80 1005.9
20260505174211 65 228 1.0 7.0 0.14 0.22 0.21 79 1005.4
20260505173933 66 273 1.0 4.0 0.13 0.21 0.20 78 1005.2
20260505173211 66 274 1.0 6.0 0.11 0.19 0.19 77 1005.1
20260505172711 67 274 2.0 7.0 0.11 0.19 0.19 77 1005.0
20260505172212 67 247 3.0 11.0 0.11 0.19 0.19 75 1004.9
20260505171711 67 247 6.0 17.0 0.11 0.19 0.19 72 1005.0
20260505171427 68 237 7.0 17.0 0.11 0.19 0.19 69 1005.0
20260505170707 70 220 8.0 17.0 0.10 0.18 0.18 67 1005.0
20260505170429 71 268 9.0 17.0 0.00 0.08 0.08 59 1005.3
20260505165707 71 232 9.0 22.0 0.00 0.08 0.08 57 1004.9
20260505165429 72 223 9.0 22.0 0.00 0.08 0.08 57 1004.9
20260505164707 72 238 9.0 20.0 0.00 0.08 0.08 57 1004.8
20260505164432 72 201 7.0 20.0 0.00 0.08 0.08 57 1004.9
20260505163707 73 282 6.0 19.0 0.00 0.08 0.08 57 1004.8
20260505163207 73 250 6.0 18.0 0.00 0.08 0.08 58 1004.6
20260505162707 72 234 6.0 18.0 0.00 0.08 0.08 59 1004.6
20260505162207 72 246 5.0 15.0 0.00 0.08 0.08 60 1004.5
20260505161708 72 254 6.0 14.0 0.00 0.08 0.08 59 1004.5
20260505161207 72 275 6.0 15.0 0.00 0.08 0.08 60 1004.4
20260505160707 72 229 5.0 15.0 0.00 0.08 0.08 60 1004.3
20260505160207 71 225 6.0 14.0 0.00 0.08 0.08 61 1004.4
20260505152707 71 233 7.0 19.0 0.00 0.08 0.08 61 1004.8
20260505152207 71 246 8.0 19.0 0.00 0.08 0.08 61 1004.8
20260505151707 71 229 7.0 16.0 0.00 0.08 0.08 61 1004.9
20260505151426 71 242 7.0 14.0 0.00 0.08 0.08 61 1004.9
20260505150707 71 251 7.0 18.0 0.00 0.08 0.08 61 1004.8
20260505150207 71 266 7.0 18.0 0.00 0.08 0.08 61 1004.8
20260505140427 71 211 7.0 18.0 0.00 0.08 0.08 63 1004.3
20260505130205 68 227 5.0 10.0 0.00 0.08 0.08 69 1004.4
20260505124704 67 214 6.0 18.0 0.00 0.08 0.08 71 1004.4
20260505124205 66 242 5.0 15.0 0.00 0.08 0.08 73 1004.3
20260505123705 65 194 4.0 12.0 0.00 0.08 0.08 73 1004.7
20260505123428 65 234 5.0 12.0 0.00 0.08 0.08 73 1004.7
20260505122705 65 206 5.0 10.0 0.00 0.08 0.08 73 1004.7
20260505122205 65 186 4.0 12.0 0.00 0.08 0.08 73 1004.8
20260505121704 65 200 4.0 12.0 0.00 0.08 0.08 74 1004.7
20260505121205 64 199 5.0 17.0 0.00 0.08 0.08 74 1004.7
20260505120704 64 210 5.0 17.0 0.00 0.08 0.08 74 1004.7
20260505120207 63 237 5.0 11.0 0.00 0.08 0.08 75 1004.7
20260505115705 63 219 5.0 10.0 0.00 0.08 0.08 74 1004.8
20260505115205 63 221 5.0 14.0 0.00 0.08 0.08 74 1004.7
20260505114705 63 184 5.0 17.0 0.00 0.08 0.08 74 1004.7
20260505114428 63 224 5.0 17.0 0.00 0.08 0.08 74 1004.7
20260505113922 63 198 5.0 11.0 0.00 0.08 0.08 75 1004.6
20260505113204 62 178 5.0 16.0 0.00 0.08 0.08 75 1004.6
20260505112705 62 200 6.0 16.0 0.00 0.08 0.08 75 1004.6
20260505112204 61 190 6.0 16.0 0.00 0.08 0.08 77 1004.5
20260505111705 60 202 6.0 16.0 0.00 0.08 0.08 77 1004.5
20260505111204 60 251 5.0 13.0 0.00 0.08 0.08 78 1004.3
20260505110704 60 223 5.0 13.0 0.00 0.08 0.08 79 1004.4
20260505110205 59 204 5.0 12.0 0.00 0.08 0.08 79 1004.3
20260505102205 57 179 5.0 16.0 0.00 0.08 0.08 82 1003.9
20260505101704 57 218 4.0 10.0 0.00 0.08 0.08 83 1003.9
20260505101204 56 200 4.0 9.0 0.00 0.08 0.08 83 1003.9
20260505100705 56 181 4.0 13.0 0.00 0.08 0.08 84 1003.8
20260505100204 56 179 5.0 14.0 0.00 0.08 0.08 84 1003.8
20260505095704 56 224 5.0 14.0 0.00 0.08 0.08 84 1003.8
20260505094705 56 208 4.0 8.0 0.00 0.08 0.08 85 1003.9
20260505094205 56 194 5.0 11.0 0.00 0.08 0.08 85 1003.9
20260505093704 56 218 5.0 11.0 0.00 0.08 0.08 85 1004.0
20260505093204 56 188 4.0 11.0 0.00 0.08 0.08 85 1004.1
20260505092707 56 215 4.0 11.0 0.00 0.08 0.08 85 1004.1
20260505092205 56 173 4.0 11.0 0.00 0.08 0.08 86 1003.9
20260505091704 56 197 4.0 10.0 0.00 0.08 0.08 86 1004.0
20260505091204 56 209 4.0 11.0 0.00 0.08 0.08 86 1004.0
20260505090207 56 183 4.0 10.0 0.00 0.08 0.08 87 1004.0
20260505085704 56 196 5.0 10.0 0.01 0.08 0.08 87 1004.1
20260505085426 56 165 4.0 9.0 0.01 0.08 0.08 88 1004.0
20260505084927 56 175 4.0 12.0 0.02 0.08 0.08 88 1004.1
20260505084204 56 193 4.0 12.0 0.03 0.08 0.08 88 1004.1
20260505083926 56 194 3.0 6.0 0.07 0.08 0.08 88 1004.1
20260505083204 56 183 3.0 5.0 0.07 0.08 0.08 88 1004.1
20260505082205 57 201 2.0 5.0 0.07 0.08 0.08 87 1004.2
20260505081704 57 212 1.0 3.0 0.07 0.08 0.08 87 1004.2
20260505081205 57 212 1.0 3.0 0.07 0.08 0.08 87 1004.3
20260505080924 57 212 2.0 10.0 0.07 0.08 0.08 87 1004.4
20260505080204 57 213 4.0 12.0 0.07 0.08 0.08 86 1004.4
20260505075704 57 168 5.0 16.0 0.06 0.07 0.07 86 1004.4
20260505075205 57 180 5.0 16.0 0.06 0.07 0.07 86 1004.2
20260505074704 57 207 4.0 11.0 0.05 0.06 0.06 84 1004.6
20260505074204 57 188 5.0 10.0 0.04 0.05 0.05 83 1004.8
20260505073704 57 214 4.0 10.0 0.00 0.01 0.01 81 1004.9
20260505073430 57 211 4.0 9.0 0.00 0.01 0.01 81 1004.7
20260505072704 56 209 3.0 7.0 0.00 0.01 0.01 81 1004.6
20260505072204 56 209 4.0 10.0 0.00 0.01 0.01 82 1004.6
20260505071704 56 165 5.0 11.0 0.00 0.01 0.01 82 1004.5
20260505070706 56 150 4.0 8.0 0.00 0.01 0.01 82 1004.5
20260505070204 56 185 4.0 10.0 0.00 0.01 0.01 82 1004.6
20260505065922 57 165 4.0 10.0 0.00 0.01 0.01 82 1004.6
20260505065424 57 192 4.0 8.0 0.00 0.01 0.01 82 1004.6
20260505064705 57 180 4.0 14.0 0.00 0.01 0.01 81 1004.7
20260505064204 57 173 5.0 15.0 0.00 0.01 0.01 81 1004.6
20260505063922 58 173 5.0 15.0 0.01 0.01 0.01 81 1004.6
20260505063204 58 186 4.0 11.0 0.01 0.01 0.01 82 1004.6
20260505062704 58 186 3.0 10.0 0.01 0.01 0.01 82 1004.5
20260505062204 58 205 4.0 10.0 0.01 0.01 0.01 82 1004.5
20260505061930 59 180 4.0 9.0 0.01 0.01 0.01 82 1004.4
20260505061204 59 163 4.0 10.0 0.01 0.01 0.01 81 1004.4
20260505060704 59 179 5.0 10.0 0.01 0.01 0.01 81 1004.4
20260505060204 59 201 5.0 14.0 0.01 0.01 0.01 80 1004.4
20260505055704 60 191 5.0 14.0 0.01 0.01 0.01 79 1004.5
20260505055204 60 222 6.0 14.0 0.01 0.01 0.01 78 1004.6
20260505054705 60 211 7.0 14.0 0.01 0.01 0.01 77 1004.6
20260505054204 61 194 7.0 14.0 0.01 0.01 0.01 75 1004.6
20260505053704 61 211 6.0 17.0 0.00 0.00 0.00 75 1004.8
20260505053204 61 218 6.0 17.0 0.00 0.00 0.00 74 1004.5
20260505052704 61 202 6.0 13.0 0.00 0.00 0.00 74 1004.4
20260505052204 61 213 7.0 14.0 0.00 0.00 0.00 73 1004.6
20260505051704 60 207 7.0 16.0 0.00 0.00 0.00 72 1004.9
20260505051420 60 236 5.0 16.0 0.00 0.00 0.00 68 1004.9
20260505050704 59 263 4.0 10.0 0.00 0.00 0.00 66 1004.8
20260505050203 59 171 3.0 5.0 0.00 0.00 0.00 66 1004.9
20260505041703 58 184 4.0 9.0 0.00 0.00 0.00 67 1004.8
20260505041204 58 189 4.0 10.0 0.00 0.00 0.00 66 1004.7
20260505040706 57 224 4.0 10.0 0.00 0.00 0.00 66 1004.7
20260505040514 57 184 3.0 7.0 0.00 0.00 0.00 66 1004.6
20260505035703 57 200 3.0 7.0 0.00 0.00 0.00 66 1004.5
20260505035204 57 170 4.0 7.0 0.00 0.00 0.00 66 1004.5
20260505034923 57 190 4.0 7.0 0.00 0.00 0.00 66 1004.6
20260505034203 57 189 3.0 7.0 0.00 0.00 0.00 66 1004.5
20260505033704 57 191 3.0 7.0 0.00 0.00 0.00 65 1004.6
20260505033203 57 207 2.0 5.0 0.00 0.00 0.00 64 1004.6
20260505032704 57 207 3.0 7.0 0.00 0.00 0.00 64 1004.5
20260505032205 57 220 3.0 8.0 0.00 0.00 0.00 63 1004.5
20260505031703 57 175 3.0 9.0 0.00 0.00 0.00 63 1004.5
20260505031204 57 185 3.0 9.0 0.00 0.00 0.00 64 1004.6
20260505030703 57 207 3.0 6.0 0.00 0.00 0.00 63 1004.6
20260505030204 57 209 3.0 6.0 0.00 0.00 0.00 64 1004.6
20260505025705 57 211 3.0 5.0 0.00 0.00 0.00 63 1004.6
20260505025203 57 212 3.0 5.0 0.00 0.00 0.00 63 1004.5
20260505024920 57 213 2.0 5.0 0.00 0.00 0.00 63 1004.6
20260505024429 58 215 2.0 4.0 0.00 0.00 0.00 63 1004.6
20260505023703 58 213 2.0 4.0 0.00 0.00 0.00 62 1004.6
20260505023428 58 213 2.0 6.0 0.00 0.00 0.00 62 1004.6
20260505022704 58 211 2.0 6.0 0.00 0.00 0.00 62 1004.7
20260505022204 58 200 2.0 4.0 0.00 0.00 0.00 62 1004.7
20260505021203 58 199 3.0 6.0 0.00 0.00 0.00 63 1004.7
20260505020704 58 200 3.0 5.0 0.00 0.00 0.00 63 1004.7
20260505020203 58 176 3.0 7.0 0.00 0.00 0.00 63 1004.7
20260505015203 58 194 3.0 6.0 0.00 0.00 0.00 63 1004.7
20260505014703 58 199 2.0 4.0 0.00 0.00 0.00 63 1004.6
20260505014204 58 200 2.0 4.0 0.00 0.00 0.00 63 1004.5
20260505013704 58 200 2.0 5.0 0.00 0.00 0.00 63 1004.4
20260505013204 58 200 2.0 5.0 0.00 0.00 0.00 62 1004.5
20260505012704 58 202 2.0 4.0 0.00 0.00 0.00 62 1004.4
20260505012422 58 201 2.0 4.0 0.00 0.00 0.00 62 1004.5
20260505011704 58 201 2.0 4.0 0.00 0.00 0.00 62 1004.5
20260505011203 58 201 2.0 4.0 0.00 0.00 0.00 62 1004.4
20260505010704 59 202 1.0 3.0 0.00 0.00 0.00 62 1004.4
20260505010203 59 202 1.0 3.0 0.00 0.00 0.00 61 1004.3
20260505005704 60 202 1.0 3.0 0.00 0.00 0.00 61 1004.3
20260505005424 60 202 1.0 2.0 0.00 0.00 0.00 60 1004.3
20260505004703 60 202 1.0 2.0 0.00 0.00 0.00 61 1004.3
20260505004204 60 202 0.0 2.0 0.00 0.00 0.00 59 1004.2
20260505003705 61 202 0.0 1.0 0.00 0.00 0.00 59 1004.1
20260505003203 61 202 1.0 2.0 0.00 0.00 0.00 58 1004.1
20260505002704 62 202 0.0 2.0 0.00 0.00 0.00 57 1004.1
20260505002204 62 202 0.0 2.0 0.00 0.00 0.00 56 1004.1
20260505001922 62 202 0.0 2.0 0.00 0.00 0.00 56 1004.1
20260505001420 62 202 1.0 3.0 0.00 0.00 0.00 56 1004.0
20260505000701 63 202 1.0 3.0 0.00 0.00 0.00 55 1003.9
20260505000204 64 202 0.0 2.0 0.00 0.00 0.00 53 1004.0
20260504235701 64 202 0.0 2.0 0.00 0.00 0.00 51 1004.1
20260504235421 65 202 1.0 3.0 0.00 0.00 0.00 51 1004.1
20260504234701 66 202 1.0 3.0 0.00 0.00 0.00 50 1004.1
20260504234202 67 202 2.0 3.0 0.00 0.00 0.00 48 1004.1
20260504233701 68 202 2.0 3.0 0.00 0.00 0.00 47 1003.9
20260504233202 69 202 2.0 3.0 0.00 0.00 0.00 45 1004.0
20260504232701 70 202 2.0 4.0 0.00 0.00 0.00 44 1003.9
20260504232201 70 202 2.0 6.0 0.00 0.00 0.00 41 1003.9
20260504231702 71 200 2.0 6.0 0.00 0.00 0.00 41 1003.9
20260504231201 71 213 2.0 5.0 0.00 0.00 0.00 41 1003.9
20260504230701 71 215 2.0 7.0 0.00 0.00 0.00 40 1003.8
20260504230201 71 217 2.0 7.0 0.00 0.00 0.00 39 1003.8
20260504225701 72 225 3.0 10.0 0.00 0.00 0.00 40 1003.9
20260504225202 72 225 3.0 10.0 0.00 0.00 0.00 37 1003.9
20260504224700 72 249 3.0 8.0 0.00 0.00 0.00 39 1003.9
20260504223702 73 261 4.0 10.0 0.00 0.00 0.00 37 1004.1
20260504223201 73 231 4.0 10.0 0.00 0.00 0.00 37 1004.0